WS Maaseik 1 Meer informatie WS Maaseik 1


WS Maaseik 2 Meer informatie WS Maaseik 2


Regen radar Meer informatie rain snow radar


Bezoek onze andere website:

Vorige versie
weerstation Maaseik


Bezoek ook eens deze sites:

Weerstation Geleen



Het weer levert geen direct gevaar op.    Er zijn geen waarschuwingen afgegeven.

15 daagse weersverwachting Rostock (DE)

  • Overzicht
  • Per uur
  • 15 dagen
  • Extra
  • Vergelijk
  • Kaarten
  • Dagkaart
  • Meer »
  • Info
  • Statistieken
  • Directe link
    Temp 6h Neerslag Wind  
 05:34     21:02    Daglengte: 15:28 Vandaag
20:00
20°
 
5
 05:36     21:00    Daglengte: 15:24 Morgen
02:00
15°
 
3
08:00
17°
 
3
14:00
23°
 
5
20:00
20°
 
6
 05:38     20:58    Daglengte: 15:20 Zaterdag 07 Aug
02:00
16°
0.3 mm
3
08:00
17°
 
4
14:00
23°
 
4
20:00
20°
4.9 mm
3
 05:39     20:56    Daglengte: 15:17 Zondag 08 Aug
02:00
17°
11.0 mm
3
08:00
17°
11.1 mm
4
Locatie info
Region: Mecklenburg-Vorpommern
Latitude: 54.0791°N
Longitude: 12.1322°E
18 masl
Postcode: 18055
Temp/Neerslag /Baro Onweer/Dauwpunt
    Temp Baro 1h Neerslag Dauwpunt Wind UV Bewolking  
 05:34     21:02    Daglengte: 15:28 Vandaag
15:00
23°
1010.0 hPa   11.1°
4
Windvlaag: -1.4 m/s
16%
16:00
23°
1009.6 hPa   11.1°
4
Windvlaag: -1.6 m/s
16%
17:00
23°
1009.2 hPa   11.5°
5
Windvlaag: -0.6 m/s
27%
18:00
22°
1008.9 hPa   11.8°
5
Windvlaag: 0.5 m/s
33%
19:00
21°
1008.8 hPa   11.9°
5
Windvlaag: 0.8 m/s
33%
20:00
20°
1008.9 hPa   12.0°
5
Windvlaag: 1.3 m/s
37%
21:00
19°
1008.9 hPa   12.0°
4
Windvlaag: 1.4 m/s
28%
22:00
18°
1009.1 hPa   12.7°
4
Windvlaag: 1.9 m/s
19%
23:00
17°
1009.0 hPa   13.1°
4
Windvlaag: 1.5 m/s
20%
 05:36     21:00    Daglengte: 15:24 Morgen
00:00
16°
1008.7 hPa   13.5°
3
Windvlaag: 1.7 m/s
39%
01:00
16°
1008.1 hPa   13.7°
3
Windvlaag: 1.8 m/s
18%
02:00
15°
1007.8 hPa   13.8°
3
Windvlaag: 1.5 m/s
66%
03:00
15°
1007.4 hPa   14.0°
3
Windvlaag: 1.4 m/s
74%
04:00
15°
1007.0 hPa   14.0°
3
Windvlaag: 1.4 m/s
74%
05:00
15°
1006.5 hPa   14.2°
3
Windvlaag: 2 m/s
65%
06:00
15°
1006.3 hPa   13.9°
3
Windvlaag: 2.4 m/s
63%
07:00
16°
1006.2 hPa   13.7°
3
Windvlaag: 2.3 m/s
46%
08:00
17°
1006.2 hPa   13.4°
3
Windvlaag: 4 m/s
18%
09:00
18°
1006.1 hPa   12.8°
4
Windvlaag: 3.4 m/s
14%
10:00
20°
1006.0 hPa   12.1°
4
Windvlaag: 3.3 m/s
14%
11:00
22°
1005.7 hPa   11.7°
4
Windvlaag: 4.2 m/s
13%
12:00
23°
1005.2 hPa
21%
11.8°
5
Windvlaag: 4.8 m/s
17%
13:00
23°
1004.8 hPa
26%
13.2°
5
Windvlaag: 4.6 m/s
17%
14:00
23°
1004.6 hPa
71%
14.5°
5
Windvlaag: 7.8 m/s
19%
15:00
23°
1004.1 hPa
74%
14.4°
5
Windvlaag: 5.5 m/s
22%
16:00
24°
1003.9 hPa
72%
14.3°
5
Windvlaag: 5.3 m/s
23%
17:00
23°
1003.8 hPa
73%
13.5°
6
Windvlaag: 5.2 m/s
18%
18:00
22°
1003.8 hPa
74%
12.7°
6
Windvlaag: 4.8 m/s
22%
19:00
21°
1004.0 hPa
73%
12.1°
7
Windvlaag: 4.6 m/s
14%
20:00
20°
1004.1 hPa
65%
11.2°
6
Windvlaag: 4 m/s
68%
21:00
19°
1004.5 hPa
73%
11.3°
6
Windvlaag: 3.4 m/s
65%
22:00
18°
1004.7 hPa
30%
11.8°
6
Windvlaag: 3.8 m/s
76%
23:00
17°
1004.9 hPa
64%
12.3°
5
Windvlaag: 4.1 m/s
78%
 05:38     20:58    Daglengte: 15:20 Zaterdag 07 Aug
00:00
17°
1005.0 hPa 0.3 mm
78%
12.4°
4
Windvlaag: 4.8 m/s
75%
01:00
16°
1004.8 hPa
82%
13.2°
3
Windvlaag: 4.2 m/s
75%
02:00
16°
1004.6 hPa
82%
13.6°
3
Windvlaag: 4.5 m/s
57%
03:00
16°
1004.5 hPa
26%
13.9°
2
Windvlaag: 3.5 m/s
23%
04:00
16°
1004.6 hPa
26%
14.2°
2
Windvlaag: 3.9 m/s
43%
05:00
16°
1004.4 hPa
23%
14.4°
2
Windvlaag: 4 m/s
15%
06:00
16°
1004.5 hPa
23%
14.3°
2
Windvlaag: 4.4 m/s
18%
07:00
16°
1004.7 hPa
19%
15.0°
3
Windvlaag: 4.9 m/s
14%
08:00
17°
1005.0 hPa
20%
14.7°
4
Windvlaag: 5.1 m/s
9%
09:00
17°
1005.2 hPa
18%
15.1°
4
Windvlaag: 5.1 m/s
10%
10:00
18°
1005.3 hPa
17%
15.6°
4
Windvlaag: 5.4 m/s
12%
11:00
20°
1005.4 hPa
25%
10.0°
4
Windvlaag: 6.5 m/s
12%
12:00
21°
1005.2 hPa
26%
8.8°
5
Windvlaag: 7.2 m/s
7%
13:00
22°
1004.8 hPa
27%
8.5°
4
Windvlaag: 7.4 m/s
29%
14:00
23°
1004.6 hPa
30%
9.0°
4
Windvlaag: 7.1 m/s
35%
15:00
23°
1004.2 hPa
89%
10.1°
4
Windvlaag: 7.1 m/s
17%
16:00
23°
1003.9 hPa
92%
11.0°
4
Windvlaag: 7.7 m/s
22%
17:00
23°
1003.4 hPa 2.0 mm
94%
11.7°
3
Windvlaag: 6.9 m/s
91%
18:00
20°
1003.5 hPa 2.9 mm
99%
15.8°
3
Windvlaag: 7.3 m/s
83%
19:00
21°
1003.3 hPa
96%
15.2°
2
Windvlaag: 3.7 m/s
100%
20:00
20°
1003.0 hPa
94%
15.2°
3
Windvlaag: 2 m/s
79%
21:00
19°
1002.9 hPa
87%
15.9°
2
Windvlaag: 3.2 m/s
97%
22:00
19°
1002.8 hPa
38%
16.0°
3
Windvlaag: 3.4 m/s
62%
23:00
18°
1002.6 hPa 2.8 mm
25%
16.0°
2
Windvlaag: 4.2 m/s
71%
 05:39     20:56    Daglengte: 15:17 Zondag 08 Aug
00:00
18°
1002.5 hPa 2.5 mm
21%
16.4°
3
Windvlaag: 4.4 m/s
74%
01:00
18°
1002.3 hPa 2.5 mm
21%
16.1°
2
Windvlaag: 3.2 m/s
83%
02:00
17°
1002.3 hPa 3.2 mm
21%
16.3°
3
Windvlaag: 3.8 m/s
91%
03:00
17°
1001.9 hPa 2.6 mm
88%
16.4°
2
Windvlaag: 2.9 m/s
90%
04:00
17°
1002.2 hPa 2.7 mm
99%
16.4°
3
Windvlaag: 4.8 m/s
94%
05:00
16°
1002.3 hPa 4.1 mm
100%
15.4°
3
Windvlaag: 5 m/s
85%
06:00
16°
1002.4 hPa 3.7 mm
100%
14.6°
2
Windvlaag: 4.3 m/s
30%
07:00
16°
1002.5 hPa 2.6 mm
100%
14.2°
3
Windvlaag: 4.4 m/s
70%
08:00
17°
1002.9 hPa 2.7 mm
100%
14.3°
4
Windvlaag: 6.5 m/s
58%
09:00
17°
1003.4 hPa 0.9 mm
100%
-35.1°
5
Windvlaag: 0 m/s
0% warningclass
Temp/Neerslag /Baro Onweer/Dauwpunt
    Temp Baro Neerslag Dauwpunt Wind Bewolking  
 05:34     21:02    Daglengte: 15:28 Vandaag
17:00
23°
1009.2 hPa   11.5°
5
27%
20:00
20°
1008.9 hPa   12.0°
5
37%
23:00
17°
1009.0 hPa   13.1°
4
20%
 05:36     21:00    Daglengte: 15:24 Morgen
02:00
15°
1007.8 hPa   13.8°
3
66%
05:00
15°
1006.5 hPa   14.2°
3
65%
08:00
17°
1006.2 hPa   13.4°
3
18%
11:00
22°
1005.7 hPa   11.7°
4
13%
14:00
23°
1004.6 hPa   14.5°
5
19%
17:00
23°
1003.8 hPa   13.5°
6
18%
20:00
20°
1004.1 hPa   11.2°
6
68%
23:00
17°
1004.9 hPa   12.3°
5
78%
 05:38     20:58    Daglengte: 15:20 Zaterdag 07 Aug
02:00
16°
1004.6 hPa 0.3 mm 13.6°
3
57%
05:00
16°
1004.4 hPa   14.4°
2
15%
08:00
17°
1005.0 hPa   14.7°
4
9%
11:00
20°
1005.4 hPa   10.0°
4
12%
14:00
23°
1004.6 hPa   9.0°
4
35%
17:00
23°
1003.4 hPa 2.0 mm 11.7°
3
91%
20:00
20°
1003.0 hPa 2.9 mm 15.2°
3
79%
23:00
18°
1002.6 hPa 2.8 mm 16.0°
2
71%
 05:39     20:56    Daglengte: 15:17 Zondag 08 Aug
02:00
17°
1002.3 hPa 8.2 mm 16.3°
3
91%
05:00
16°
1002.3 hPa 9.5 mm 15.4°
3
85%
08:00
17°
1002.9 hPa 9.0 mm 14.3°
4
58%
11:00
19°
1004.2 hPa 2.9 mm 13.1°
6
64%
14:00
19°
1005.3 hPa   9.4°
6
67%
17:00
21°
1007.9 hPa 10.5 mm 11.9°
6
1%
20:00
18°
1009.4 hPa 11.3 mm 14.2°
6
1%
23:00
15°
1011.4 hPa 11.6 mm 14.2°
6
0%
 05:41     20:54    Daglengte: 15:13 Maandag 09 Aug
02:00
15°
1012.3 hPa 11.6 mm 13.7°
6
1%
05:00
14°
1012.9 hPa 11.6 mm 12.6°
6
1%
08:00
15°
1014.1 hPa 11.6 mm 12.5°
6
1%
11:00
19°
1014.9 hPa 11.6 mm 9.8°
7
1%
14:00
20°
1015.1 hPa 12.0 mm 10.9°
7
1%
17:00
17°
1016.0 hPa 13.9 mm 13.7°
7
1%
20:00
16°
1016.3 hPa 13.9 mm 13.2°
5
1%
23:00
13°
1016.8 hPa 13.9 mm 12.9°
4
1%
 05:43     20:51    Daglengte: 15:08 Dinsdag 10 Aug
02:00
13°
1016.7 hPa 13.9 mm 12.6°
5
1%
05:00
13°
1016.4 hPa 14.0 mm 12.6°
5
0%
08:00
15°
1016.9 hPa 14.0 mm 12.8°
6
0%
11:00
19°
1016.9 hPa 14.1 mm 13.1°
7
1%
14:00
21°
1016.9 hPa 14.6 mm 11.9°
6
1%
17:00
20°
1016.9 hPa 15.1 mm 12.9°
6
1%
20:00
18°
1017.5 hPa 15.7 mm 14.3°
5
0%
23:00
15°
1018.5 hPa 15.7 mm 14.0°
4
0%
 05:45     20:49    Daglengte: 15:04 Woensdag 11 Aug
02:00
14°
1018.7 hPa 15.7 mm 13.3°
4
1%
05:00
14°
1018.7 hPa 15.8 mm 13.3°
4
1%
08:00
16°
1018.9 hPa 15.8 mm 14.3°
4
1%
11:00
19°
1019.0 hPa 15.8 mm 12.3°
4
1%
14:00
21°
1018.2 hPa 15.8 mm 10.5°
2
1%
17:00
21°
1017.4 hPa 15.8 mm 12.1°
1
1%
20:00
19°
1017.1 hPa 15.8 mm 12.7°
2
1%
23:00
18°
1017.3 hPa 15.8 mm 11.5°
2
1%
 05:47     20:47    Daglengte: 15:00 Donderdag 12 Aug
02:00
18°
1016.9 hPa 15.8 mm 11.7°
2
1%
05:00
17°
1016.0 hPa 15.8 mm 11.7°
3
1%
08:00
18°
1015.7 hPa 15.8 mm 12.6°
3
1%
11:00
21°
1015.7 hPa 15.8 mm 12.7°
4
1%
14:00
21°
1015.5 hPa 31.6 mm 12.9°
4
1%
20:00
20°
1015.1 hPa 31.6 mm 13.6°
4
1%
 05:48     20:45    Daglengte: 14:57 Vrijdag 13 Aug
02:00
16°
1016.8 hPa 31.6 mm 14.3°
2
1%
08:00
19°
1018.2 hPa 31.8 mm 14.5°
3
1%
14:00
23°
1019.4 hPa 31.8 mm 9.9°
4
1%
20:00
20°
1019.8 hPa 31.8 mm 13.7°
2
0%
 05:50     20:43    Daglengte: 14:53 Zaterdag 14 Aug
02:00
17°
1020.2 hPa 31.8 mm 14.5°
3
0%
08:00
18°
1020.6 hPa 32.0 mm 14.9°
4
0%
14:00
22°
1020.3 hPa 32.1 mm 12.1°
4
1%
20:00
19°
1019.9 hPa 32.5 mm 15.5°
2
1%
 05:52     20:41    Daglengte: 14:49 Zondag 15 Aug
02:00
15°
1020.0 hPa 32.7 mm 13.7°
3
1%
08:00
17°
1019.5 hPa 32.7 mm 13.4°
3
1%
14:00
21°
1011.1 hPa 0.7 mm 12.2°
4
64%
20:00
18°
1011.1 hPa 1.2 mm 13.0°
2
62%
 05:54     20:39    Daglengte: 14:45 Maandag 16 Aug
02:00
15°
1011.8 hPa 0.4 mm 12.4°
2
53%
08:00
16°
1011.5 hPa 0.6 mm 12.7°
2
58%
14:00
21°
1011.9 hPa 1.3 mm 12.2°
4
74%
20:00
18°
1012.1 hPa 0.8 mm 12.8°
2
62%
 05:55     20:36    Daglengte: 14:41 Dinsdag 17 Aug
02:00
15°
1013.0 hPa 0.6 mm 12.4°
3
50%
08:00
16°
1013.4 hPa 0.5 mm 12.8°
4
58%
14:00
20°
1013.9 hPa 0.5 mm 11.8°
5
65%
20:00
18°
1013.6 hPa 0.6 mm 12.6°
3
67%
 05:57     20:34    Daglengte: 14:37 Woensdag 18 Aug
02:00
16°
1013.9 hPa 0.4 mm 12.8°
3
51%
08:00
17°
1013.4 hPa 0.6 mm 13.3°
3
58%
14:00
21°
1012.8 hPa 0.9 mm 13.7°
3
67%
20:00
19°
1012.2 hPa 0.9 mm 14.1°
2
67%
 05:59     20:32    Daglengte: 14:33 Donderdag 19 Aug
02:00
16°
1012.7 hPa 0.4 mm 13.5°
2
61%
08:00
17°
1013.0 hPa 0.3 mm 13.5°
3
65%
14:00
22°
1013.1 hPa 0.6 mm 13.1°
3
62%
20:00
19°
1013.0 hPa 1.1 mm 13.8°
2
54%
 06:01     20:30    Daglengte: 14:29 Vrijdag 20 Aug
02:00
16°
1013.2 hPa 0.4 mm 13.3°
2
47%
08:00
17°
1012.8 hPa 0.2 mm 13.2°
2
57%
14:00
21°
1012.6 hPa 0.4 mm 12.1°
3
60%
  CAPE Lifted Index Hail Supercell Tornado SRH 3km CL BTM PRES CL TOP PRES Swiss DWD icon SMHI TS
 05:34     21:02    Daglengte: 15:28 Vandaag
15:00 109 J/kg 0.6 K 0 % 0 % 0 % 0 m²/s² 0 0 1.86 2
16:00 97 J/kg 0.5 K 0 % 0 % 0 % 0 m²/s² 0 0 1.94 2
17:00 124 J/kg 0.6 K 0 % 0 % 0 % 0 m²/s² 0 0 1.83 3
18:00 80 J/kg 0.6 K 0 % 0 % 0 % 0 m²/s² 0 0 1.83 3
19:00 0 J/kg 1.5 K 0 % 0 % 0 % 0 m²/s² 0 0 2.79 3
20:00 0 J/kg 1.6 K 0 % 0 % 0 % 0 m²/s² 0 0 2.89 3
21:00 0 J/kg 1.8 K 0 % 0 % 0 % 0 m²/s² 0 0 3.24 3
22:00 0 J/kg 1.3 K 0 % 0 % 0 % 0 m²/s² 0 0 2.74 1
23:00 0 J/kg 1.0 K 0 % 0 % 0 % 0 m²/s² 0 0 2.44 0
 05:36     21:00    Daglengte: 15:24 Morgen
00:00 2 J/kg 0.8 K 0 % 0 % 0 % 0 m²/s² 0 0 2.24 3
01:00 5 J/kg 1.1 K 0 % 0 % 0 % 0 m²/s² 0 0 2.48 2
02:00 22 J/kg 0.5 K 0 % 0 % 0 % 0 m²/s² 0 0 2.18 3
03:00 50 J/kg 0.0 K 0 % 0 % 0 % 0 m²/s² 0 0 1.8 3
04:00 120 J/kg -0.7 K 0 % 0 % 0 % 0 m²/s² 0 0 1.4 3
05:00 87 J/kg -0.4 K 0 % 0 % 0 % 0 m²/s² 0 0 1.91 3
06:00 29 J/kg 0.3 K 0 % 0 % 0 % 0 m²/s² 0 0 2.91 3
07:00 105 J/kg -0.3 K 0 % 0 % 0 % 0 m²/s² 0 0 2.61 3
08:00 299 J/kg -1.2 K 0 % 0 % 0 % 0 m²/s² 0 0 1.77 1
09:00 477 J/kg -1.9 K 0 % 0 % 0 % 0 m²/s² 0 0 1.34 2
10:00 356 J/kg -1.4 K 0 % 0 % 0 % 0 m²/s² 0 0 2.11 2
11:00 219 J/kg -0.7 K 0 % 0 % 0 % 0 m²/s² 0 0 2.9 2
12:00 247 J/kg -0.6 K 0 % 0 % 0 % 0 m²/s² 0 0 2.82 2
13:00 379 J/kg -1.2 K 0 % 0 % 0 % 0 m²/s² 0 0 1.8 2
14:00 313 J/kg -1.0 K 0 % 0 % 0 % 0 m²/s² 0 0 1.37 2
15:00 166 J/kg -0.5 K 0 % 0 % 0 % 0 m²/s² 0 0 1.69 2
16:00 26 J/kg 0.4 K 0 % 0 % 0 % 0 m²/s² 0 0 2.71 2
17:00 0 J/kg 1.0 K 0 % 0 % 0 % 0 m²/s² 0 0 3.34 2
18:00 0 J/kg 1.8 K 0 % 0 % 0 % 0 m²/s² 0 0 3.84 2
19:00 0 J/kg 2.0 K 0 % 0 % 0 % 0 m²/s² 0 0 3.74 2
20:00 0 J/kg 1.6 K 0 % 0 % 0 % 0 m²/s² 0 0 3.16 3
21:00 0 J/kg 0.9 K 0 % 0 % 0 % 0 m²/s² 0 0 1.77 3
22:00 0 J/kg 2.1 K 0 % 0 % 0 % 0 m²/s² 0 0 2.97 3
23:00 0 J/kg 1.2 K 0 % 0 % 0 % 0 m²/s² 0 0 1.68 3
 05:38     20:58    Daglengte: 15:20 Zaterdag 07 Aug
00:00 0 J/kg 1.4 K 0 % 0 % 0 % 0 m²/s² 0 0 1.67 80
01:00 0 J/kg 0.8 K 0 % 0 % 0 % 0 m²/s² 0 0 0.8 3
02:00 0 J/kg 0.6 K 0 % 0 % 0 % 0 m²/s² 0 0 1.35 3
03:00 0 J/kg 0.3 K 0 % 0 % 0 % 0 m²/s² 0 0 1.05 2
04:00 0 J/kg -0.7 K 0 % 0 % 0 % 0 m²/s² 0 0 -0.37 3
05:00 0 J/kg 0.3 K 0 % 0 % 0 % 0 m²/s² 0 0 1.53 2
06:00 5 J/kg 0.2 K 0 % 0 % 0 % 0 m²/s² 0 0 2.18 1
07:00 35 J/kg 1.1 K 0 % 0 % 0 % 0 m²/s² 0 0 3.53 0
08:00 86 J/kg 1.1 K 0 % 0 % 0 % 0 m²/s² 0 0 3.53 1
09:00 50 J/kg 1.7 K 0 % 0 % 0 % 0 m²/s² 0 0 5.9 2
10:00 160 J/kg 1.0 K 0 % 0 % 0 % 0 m²/s² 0 0 5.77 2
11:00 30 J/kg 2.8 K 0 % 0 % 0 % 0 m²/s² 0 0 7.57 2
12:00 11 J/kg 3.0 K 0 % 0 % 0 % 0 m²/s² 0 0 6.78 2
13:00 18 J/kg 3.0 K 0 % 0 % 0 % 0 m²/s² 0 0 6.6 2
14:00 57 J/kg 2.2 K 0 % 0 % 0 % 0 m²/s² 0 0 4.78 2
15:00 100 J/kg 1.1 K 0 % 0 % 0 % 0 m²/s² 0 0 2.6 2
16:00 204 J/kg -0.6 K 0 % 0 % 0 % 0 m²/s² 0 0 0.66 2
17:00 317 J/kg -1.5 K 0 % 0 % 0 % 0 m²/s² 0 0 -1.26 3
18:00 194 J/kg -1.3 K 0 % 0 % 0 % 0 m²/s² 0 0 -1.3 2
19:00 233 J/kg -1.6 K 0 % 0 % 0 % 0 m²/s² 0 0 -0.01 3
20:00 349 J/kg -1.9 K 0 % 0 % 0 % 0 m²/s² 0 0 0.08 3
21:00 335 J/kg -1.7 K 0 % 0 % 0 % 0 m²/s² 0 0 0.04 3
22:00 242 J/kg -1.5 K 0 % 0 % 0 % 0 m²/s² 0 0 -0.42 2
23:00 48 J/kg -0.9 K 0 % 0 % 0 % 0 m²/s² 0 0 0.48 3
 05:39     20:56    Daglengte: 15:17 Zondag 08 Aug
00:00 0 J/kg -0.8 K 0 % 0 % 0 % 0 m²/s² 0 0 0.13 3
01:00 30 J/kg -1.0 K 0 % 0 % 0 % 0 m²/s² 0 0 0.38 3
02:00 93 J/kg -0.3 K 0 % 0 % 0 % 0 m²/s² 0 0 0.99 3
03:00 186 J/kg -1.1 K 0 % 0 % 0 % 0 m²/s² 0 0 0.7 3
04:00 240 J/kg -1.4 K 0 % 0 % 0 % 0 m²/s² 0 0 0.19 3
05:00 128 J/kg -0.8 K 0 % 0 % 0 % 0 m²/s² 0 0 0.91 61
06:00 7 J/kg -0.9 K 0 % 0 % 0 % 0 m²/s² 0 0 0.99 61
07:00 42 J/kg -0.7 K 0 % 0 % 0 % 0 m²/s² 0 0 1.13 61
08:00 268 J/kg -1.3 K 0 % 0 % 0 % 0 m²/s² 0 0 0.41 61
09:00 0 J/kg 0.0 K 0 % 0 % 0 % 0 m²/s² 0 0 13.83 95
Temp Baro Wind Neerslag
  EWN Forecast EWN WRFDA DWD ICON FMI HIRLAM MET Norway GFS
 05:34     21:02    Daglengte: 15:28 Vandaag
17:00 23.3° 1009.2 hPa 4.8 m/s 0.0 mm 23.1° 1008.2 hPa 5.1 m/s 0.0 mm 23.3° 1009.4 hPa 4.1 m/s -2.0 mm 22.6° 1008.9 hPa 4.8 m/s 0.0 mm 21.5° 1009.5 hPa 6.3 m/s
20:00 19.9° 1008.9 hPa 5.3 m/s 0.0 mm 20.1° 1008.0 hPa 6.2 m/s 0.0 mm 19.5° 1009.0 hPa 4.4 m/s 0.0 mm 19.8° 1008.4 hPa 5.2 m/s 0.0 mm 19.0° 1009.0 hPa 6.2 m/s
23:00 17.0° 1009.0 hPa 3.7 m/s 0.0 mm 16.2° 1007.7 hPa 3.5 m/s 0.0 mm 15.4° 1009.3 hPa 3.3 m/s 0.0 mm 17.1° 1008.4 hPa 3.8 m/s 0.0 mm 16.8° 1008.8 hPa 4.6 m/s
 05:36     21:00    Daglengte: 15:24 Morgen
02:00 15.2° 1007.8 hPa 2.8 m/s 0.0 mm 15.6° 1006.5 hPa 3.6 m/s 0.0 mm 14.4° 1008.1 hPa 2.4 m/s 0.0 mm 15.1° 1007.1 hPa 2.8 m/s 0.0 mm 15.5° 1007.9 hPa 3.6 m/s
05:00 15.2° 1006.5 hPa 3.3 m/s 0.0 mm 15.5° 1005.5 hPa 4.0 m/s 0.0 mm 14.4° 1006.9 hPa 2.2 m/s 0.0 mm 15.1° 1005.9 hPa 3.7 m/s 0.0 mm 14.5° 1006.9 hPa 3.7 m/s
08:00 17.0° 1006.2 hPa 3.4 m/s 0.0 mm 18.1° 1005.1 hPa 4.6 m/s 0.0 mm 16.4° 1006.7 hPa 3.0 m/s 0.0 mm 17.1° 1005.1 hPa 4.1 m/s 0.0 mm 17.4° 1006.7 hPa 4.5 m/s
11:00 21.6° 1005.7 hPa 4.2 m/s 0.0 mm 22.6° 1004.2 hPa 4.3 m/s 0.0 mm 21.4° 1006.1 hPa 4.1 m/s 0.0 mm 22.0° 1004.8 hPa 5.2 m/s 0.0 mm 21.8° 1006.2 hPa 5.5 m/s
14:00 23.4° 1004.6 hPa 5.1 m/s 0.0 mm 24.1° 1003.6 hPa 5.6 m/s 0.0 mm 23.2° 1005.2 hPa 4.7 m/s 0.1 mm 23.3° 1003.4 hPa 5.6 m/s 0.0 mm 23.7° 1004.5 hPa 5.9 m/s
17:00 23.3° 1003.8 hPa 6.0 m/s 0.0 mm 23.5° 1002.7 hPa 8.2 m/s 0.5 mm 22.6° 1004.9 hPa 4.2 m/s 0.1 mm 23.2° 1002.2 hPa 6.6 m/s 0.0 mm 21.2° 1004.0 hPa 5.1 m/s
20:00 20.1° 1004.1 hPa 6.1 m/s 0.0 mm 19.9° 1002.3 hPa 7.8 m/s 0.6 mm 19.9° 1005.3 hPa 4.3 m/s 0.3 mm 20.1° 1002.3 hPa 7.5 m/s 0.0 mm 16.5° 1005.2 hPa 3.9 m/s
23:00 17.4° 1004.9 hPa 4.7 m/s 0.0 mm 16.9° 1003.7 hPa 2.1 m/s 0.6 mm 16.9° 1005.6 hPa 3.1 m/s 0.1 mm 17.2° 1003.0 hPa 5.6 m/s 0.0 mm 15.2° 1005.5 hPa 5.1 m/s
 05:38     20:58    Daglengte: 15:20 Zaterdag 07 Aug
02:00 16.2° 1004.6 hPa 2.7 m/s 0.3 mm 14.9° 1003.0 hPa 3.1 m/s 6.6 mm 15.4° 1005.6 hPa 2.3 m/s 0.7 mm 16.4° 1002.9 hPa 2.9 m/s 0.0 mm 14.5° 1005.4 hPa 3.6 m/s
05:00 15.7° 1004.4 hPa 1.8 m/s 0.0 mm 13.5° 1002.2 hPa 2.6 m/s 11.8 mm 15.2° 1005.5 hPa 1.6 m/s 0.0 mm 15.9° 1003.0 hPa 1.2 m/s 0.0 mm 13.7° 1005.6 hPa 2.3 m/s
08:00 16.6° 1005.0 hPa 3.9 m/s 0.0 mm 17.2° 1002.7 hPa 3.5 m/s 12.1 mm 16.3° 1006.3 hPa 2.9 m/s 0.0 mm 16.5° 1003.8 hPa 4.4 m/s 0.0 mm 16.1° 1006.0 hPa 3.3 m/s
11:00 20.1° 1005.4 hPa 4.4 m/s 0.0 mm 20.8° 1002.9 hPa 5.0 m/s 12.1 mm 20.1° 1006.4 hPa 3.2 m/s 0.0 mm 20.0° 1006.3 hPa 4.3 m/s
14:00 23.0° 1004.6 hPa 4.4 m/s 0.0 mm 23.1° 1002.3 hPa 5.3 m/s 12.1 mm 23.3° 1005.3 hPa 3.7 m/s 0.0 mm 22.0° 1005.6 hPa 3.2 m/s
17:00 23.3° 1003.4 hPa 3.0 m/s 2.0 mm 22.4° 1001.4 hPa 2.6 m/s 13.0 mm 23.4° 1004.9 hPa 2.9 m/s 0.1 mm 21.6° 1005.6 hPa 1.1 m/s
20:00 19.9° 1003.0 hPa 2.6 m/s 2.9 mm 18.9° 1001.7 hPa 3.5 m/s 20.3 mm 20.8° 1004.4 hPa 2.6 m/s 0.1 mm 19.1° 1005.0 hPa 2.8 m/s
23:00 17.9° 1002.6 hPa 2.3 m/s 2.8 mm 15.7° 1001.0 hPa 2.2 m/s 21.6 mm 18.1° 1003.8 hPa 2.9 m/s 0.0 mm 17.2° 1005.5 hPa 1.4 m/s
 05:39     20:56    Daglengte: 15:17 Zondag 08 Aug
02:00 17.5° 1002.3 hPa 2.6 m/s 8.2 mm 15.3° 1001.2 hPa 3.1 m/s 21.6 mm 17.7° 1002.5 hPa 2.6 m/s 0.0 mm 16.7° 1004.7 hPa 2.0 m/s
05:00 16.0° 1002.3 hPa 2.8 m/s 9.5 mm 13.6° 1000.1 hPa 2.8 m/s 21.6 mm 16.1° 1002.9 hPa 2.7 m/s 2.6 mm 15.5° 1004.7 hPa 3.5 m/s
08:00 16.7° 1002.9 hPa 3.8 m/s 9.0 mm 16.2° 1000.6 hPa 1.8 m/s 21.6 mm 16.7° 1003.0 hPa 3.8 m/s 2.6 mm 16.0° 1005.5 hPa 5.0 m/s
11:00 19.1° 1004.2 hPa 6.0 m/s 2.9 mm 19.0° 1003.9 hPa 5.9 m/s 1.1 mm 19.7° 1006.1 hPa 7.0 m/s 10.1 mm
14:00 19.5° 1005.3 hPa 6.4 m/s 0.0 mm 19.2° 1005.2 hPa 6.3 m/s 0.1 mm 21.2° 1006.5 hPa 7.4 m/s 10.4 mm
17:00 20.6° 1007.9 hPa 5.5 m/s 10.5 mm 20.6° 1007.9 hPa 5.5 m/s 10.5 mm
20:00 17.6° 1009.4 hPa 5.8 m/s 11.3 mm 17.6° 1009.4 hPa 5.8 m/s 11.3 mm
23:00 15.1° 1011.4 hPa 6.3 m/s 11.6 mm 15.1° 1011.4 hPa 6.3 m/s 11.6 mm
 05:41     20:54    Daglengte: 15:13 Maandag 09 Aug
02:00 14.7° 1012.3 hPa 6.2 m/s 11.6 mm 14.7° 1012.3 hPa 6.2 m/s 11.6 mm
05:00 13.7° 1012.9 hPa 6.0 m/s 11.6 mm 13.7° 1012.9 hPa 6.0 m/s 11.6 mm
08:00 15.0° 1014.1 hPa 6.0 m/s 11.6 mm 15.0° 1014.1 hPa 6.0 m/s 11.6 mm
11:00 18.7° 1014.9 hPa 7.4 m/s 11.6 mm 18.7° 1014.9 hPa 7.4 m/s 11.6 mm
14:00 20.4° 1015.1 hPa 7.1 m/s 12.0 mm 20.4° 1015.1 hPa 7.1 m/s 12.0 mm
17:00 16.9° 1016.0 hPa 6.9 m/s 13.9 mm 16.9° 1016.0 hPa 6.9 m/s 13.9 mm
20:00 15.5° 1016.3 hPa 5.3 m/s 13.9 mm 15.5° 1016.3 hPa 5.3 m/s 13.9 mm
23:00 13.3° 1016.8 hPa 4.5 m/s 13.9 mm 13.3° 1016.8 hPa 4.5 m/s 14.0 mm
 05:43     20:51    Daglengte: 15:08 Dinsdag 10 Aug
02:00 13.1° 1016.7 hPa 4.6 m/s 13.9 mm 13.1° 1016.7 hPa 4.6 m/s 14.0 mm
05:00 13.1° 1016.4 hPa 4.9 m/s 14.0 mm 13.1° 1016.4 hPa 4.9 m/s 14.0 mm
08:00 14.8° 1016.9 hPa 6.0 m/s 14.0 mm 14.8° 1016.9 hPa 6.0 m/s 14.0 mm
11:00 18.6° 1016.9 hPa 6.6 m/s 14.1 mm 18.6° 1016.9 hPa 6.6 m/s 14.1 mm
14:00 20.9° 1016.9 hPa 6.2 m/s 14.6 mm 20.9° 1016.9 hPa 6.2 m/s 14.6 mm
17:00 20.3° 1016.9 hPa 6.1 m/s 15.1 mm 20.3° 1016.9 hPa 6.1 m/s 15.1 mm
20:00 17.8° 1017.5 hPa 4.8 m/s 15.7 mm 17.8° 1017.5 hPa 4.8 m/s 15.7 mm
23:00 15.5° 1018.5 hPa 4.4 m/s 15.7 mm 15.5° 1018.5 hPa 4.4 m/s 15.7 mm
 05:45     20:49    Daglengte: 15:04 Woensdag 11 Aug
02:00 14.1° 1018.7 hPa 4.2 m/s 15.7 mm 14.1° 1018.7 hPa 4.2 m/s 15.7 mm
05:00 13.8° 1018.7 hPa 3.8 m/s 15.8 mm 13.8° 1018.7 hPa 3.8 m/s 15.8 mm
08:00 16.2° 1018.9 hPa 3.7 m/s 15.8 mm 16.2° 1018.9 hPa 3.7 m/s 15.8 mm
11:00 18.7° 1019.0 hPa 3.7 m/s 15.8 mm 18.7° 1019.0 hPa 3.7 m/s 15.8 mm
14:00 20.7° 1018.2 hPa 2.5 m/s 15.8 mm 20.7° 1018.2 hPa 2.5 m/s 15.8 mm
17:00 20.5° 1017.4 hPa 0.7 m/s 15.8 mm 20.5° 1017.4 hPa 0.7 m/s 15.8 mm
20:00 19.3° 1017.1 hPa 1.5 m/s 15.8 mm 19.3° 1017.1 hPa 1.5 m/s 15.8 mm
23:00 18.4° 1017.3 hPa 2.5 m/s 15.8 mm 18.4° 1017.3 hPa 2.5 m/s 15.8 mm
 05:47     20:47    Daglengte: 15:00 Donderdag 12 Aug
02:00 17.8° 1016.9 hPa 2.4 m/s 15.8 mm 17.8° 1016.9 hPa 2.4 m/s 15.8 mm
05:00 17.4° 1016.0 hPa 2.8 m/s 15.8 mm 17.4° 1016.0 hPa 2.8 m/s 15.8 mm
08:00 18.1° 1015.7 hPa 2.6 m/s 15.8 mm 18.1° 1015.7 hPa 2.6 m/s 15.8 mm
11:00 20.6° 1015.7 hPa 3.8 m/s 15.8 mm 20.6° 1015.7 hPa 3.8 m/s 15.8 mm
14:00 21.4° 1015.5 hPa 3.9 m/s 15.8 mm 21.4° 1015.5 hPa 3.9 m/s 15.8 mm
20:00 20.0° 1015.1 hPa 4.4 m/s 15.8 mm 20.0° 1015.1 hPa 4.4 m/s 15.8 mm
 05:48     20:45    Daglengte: 14:57 Vrijdag 13 Aug
02:00 15.9° 1016.8 hPa 2.3 m/s 15.8 mm 15.9° 1016.8 hPa 2.3 m/s 15.8 mm
08:00 18.5° 1018.2 hPa 3.0 m/s 15.9 mm 18.5° 1018.2 hPa 3.0 m/s 15.9 mm
14:00 23.2° 1019.4 hPa 3.7 m/s 15.9 mm 23.2° 1019.4 hPa 3.7 m/s 15.9 mm
20:00 19.7° 1019.8 hPa 2.4 m/s 15.9 mm 19.7° 1019.8 hPa 2.4 m/s 15.9 mm
 05:50     20:43    Daglengte: 14:53 Zaterdag 14 Aug
02:00 16.6° 1020.2 hPa 3.2 m/s 15.9 mm 16.7° 1020.2 hPa 3.2 m/s 15.9 mm
08:00 18.0° 1020.6 hPa 4.5 m/s 16.0 mm 18.0° 1020.6 hPa 4.5 m/s 16.0 mm
14:00 22.0° 1020.3 hPa 4.2 m/s 16.0 mm 22.0° 1020.3 hPa 4.2 m/s 16.0 mm
20:00 19.2° 1019.9 hPa 2.3 m/s 16.4 mm 19.2° 1019.9 hPa 2.3 m/s 16.4 mm
 05:52     20:41    Daglengte: 14:49 Zondag 15 Aug
02:00 15.4° 1020.0 hPa 2.7 m/s 16.4 mm 15.4° 1020.0 hPa 2.7 m/s 16.4 mm
08:00 17.3° 1019.5 hPa 3.0 m/s 16.4 mm 17.3° 1019.5 hPa 3.0 m/s 16.4 mm
14:00 20.7° 1011.1 hPa 4.3 m/s 0.7 mm
20:00 18.0° 1011.1 hPa 2.1 m/s 1.2 mm
 05:54     20:39    Daglengte: 14:45 Maandag 16 Aug
02:00 14.9° 1011.8 hPa 2.0 m/s 0.4 mm
08:00 15.9° 1011.5 hPa 2.4 m/s 0.6 mm
14:00 20.7° 1011.9 hPa 3.6 m/s 1.3 mm
20:00 18.5° 1012.1 hPa 2.4 m/s 0.8 mm
 05:55     20:36    Daglengte: 14:41 Dinsdag 17 Aug
02:00 14.9° 1013.0 hPa 2.8 m/s 0.6 mm
08:00 16.0° 1013.4 hPa 3.7 m/s 0.5 mm
14:00 20.5° 1013.9 hPa 4.6 m/s 0.5 mm
20:00 18.1° 1013.6 hPa 2.7 m/s 0.6 mm
 05:57     20:34    Daglengte: 14:37 Woensdag 18 Aug
02:00 15.5° 1013.9 hPa 2.9 m/s 0.4 mm
08:00 16.6° 1013.4 hPa 3.2 m/s 0.6 mm
14:00 21.5° 1012.8 hPa 3.5 m/s 0.9 mm
20:00 18.8° 1012.2 hPa 1.6 m/s 0.9 mm
 05:59     20:32    Daglengte: 14:33 Donderdag 19 Aug
02:00 16.2° 1012.7 hPa 2.1 m/s 0.4 mm
08:00 16.8° 1013.0 hPa 2.7 m/s 0.3 mm
14:00 21.6° 1013.1 hPa 3.0 m/s 0.6 mm
20:00 18.7° 1013.0 hPa 1.6 m/s 1.1 mm
 06:01     20:30    Daglengte: 14:29 Vrijdag 20 Aug
02:00 15.6° 1013.2 hPa 1.8 m/s 0.4 mm
08:00 16.6° 1012.8 hPa 2.2 m/s 0.2 mm
14:00 21.5° 1012.6 hPa 2.9 m/s 0.4 mm
FMI Hirlam - 7.5 km EWN WRFDA - 12 km DWD ICON - 7 km GFS - 25 km Basiskaart






























































Updatetijd (Europe/Brussels) Resolutie Lengte Stap
FMI Hirlam 14:00, 20:00, 02:00, 08:00 7.5 km 49h 1h
EWN WRFDA 04:15, 10:15, 16:15, 22:15 12 km 73h 1h
DWD ICON 11:45, 17:45, 23:45, 05:45 7 km 75h 1h
GFS 14:15, 20:15, 02:15, 08:15 25 km 237h 3h
30+ mm
25-30 mm
20-25 mm
15-20 mm
10-15 mm
6-10 mm
4-6 mm
2-4 mm
1-2 mm
0.5-1 mm
0.2-0.5 mm
0.1-0.2 mm
30+ mm
25-30 mm
20-25 mm
15-20 mm
10-15 mm
6-10 mm
4-6 mm
2-4 mm
1-2 mm
0.5-1 mm
0.2-0.5 mm
0.1-0.2 mm
Sneeuwval
Natte sneeuw
Hagel
Vorst
30+ mm
25-30 mm
20-25 mm
15-20 mm
10-15 mm
6-10 mm
4-6 mm
2-4 mm
1-2 mm
0.5-1 mm
0.2-0.5 mm
0.1-0.2 mm
Sneeuwval
Natte sneeuw
Hagel
Vorst
Onweer
50 mm
40 mm
30 mm
26 mm
22 mm
18 mm
14 mm
10 mm
9 mm
8 mm
7 mm
6 mm
5 mm
4.5 mm
4 mm
3.5 mm
3 mm
2.5 mm
2 mm
1.5 mm
1 mm
0.8 mm
0.6 mm
0.4 mm
0.2 mm
0.05 mm
35°
30°
25°
20°
15°
10°
-5°
-10°
-15°
-20°
-25°
-30°
-35°
33> m/s
29 m/s
25 m/s
21 m/s
17 m/s
14 m/s
11 m/s
8 m/s
5 m/s
3 m/s
0 m/s
2600 J/kg
2400 J/kg
2200 J/kg
2000 J/kg
1800 J/kg
1600 J/kg
1400 J/kg
1200 J/kg
1000 J/kg
800 J/kg
600 J/kg
400 J/kg
200 J/kg
70 dBZ
65 dBZ
60 dBZ
55 dBZ
50 dBZ
45 dBZ
40 dBZ
35 dBZ
30 dBZ
25 dBZ
20 dBZ
15 dBZ
10 dBZ
5 dBZ
-1 K
-2 K
-3 K
-4 K
-5 K
-6 K
-7 K
-8 K
-9 K
950 m²/s²
900 m²/s²
850 m²/s²
800 m²/s²
750 m²/s²
700 m²/s²
650 m²/s²
600 m²/s²
550 m²/s²
500 m²/s²
450 m²/s²
400 m²/s²
350 m²/s²
300 m²/s²
250 m²/s²
200 m²/s²
150 m²/s²
100 m²/s²
46 m/s
44 m/s
42 m/s
40 m/s
38 m/s
36 m/s
34 m/s
32 m/s
30 m/s
28 m/s
26 m/s
24 m/s
22 m/s
20 m/s
16 m/s
12 m/s
8 m/s
4 m/s
30 m/s
28 m/s
26 m/s
24 m/s
22 m/s
20 m/s
18 m/s
16 m/s
14 m/s
12 m/s
10 m/s
8 m/s
6 m/s
4 m/s
2 m/s
3.0
2.8
2.6
2.4
2.2
2.0
1.8
1.6
1.4
1.2
1.0
0.8
0.6
0.4
0.2
15
14
13
12
11
10
9
8
7
6
5
4
3
2
1
90%
80%
70%
60%
50%
40%
30%
20%
10%
42
40
38
36
34
32
30
28
26
24
22
20
18
16
14
12
90+ cm
80-90 cm
70-80 cm
60-70 cm
50-60 cm
40-50 cm
30-40 cm
20-30 cm
10-20 cm
1-10 cm
Sneeuwval
Natte sneeuw
Regen
>120 mm
115 mm
110 mm
105 mm
100 mm
95 mm
90 mm
85 mm
80 mm
75 mm
70 mm
65 mm
60 mm
55 mm
50 mm
45 mm
45 mm
40 mm
35 mm
30 mm
25 mm
20 mm
15 mm
10 mm
5 mm
0.1 mm
960 hPa
880 hPa
800 hPa
720 hPa
640 hPa
560 hPa
584 gpdm
568 gpdm
552 gpdm
536 gpdm
520 gpdm
504 gpdm
488 gpdm
Extreem zwaar Noodweer Kans op onweer
15% 15% 5% 50% 15%

Dag




Kaart






35°
30°
25°
20°
15°
10°
-5°
-10°
-15°
-20°
-25°
-30°
-35°
33> m/s
29 m/s
25 m/s
21 m/s
17 m/s
14 m/s
11 m/s
8 m/s
5 m/s
3 m/s
0 m/s
Extreem zwaar Noodweer Kans op onweer
15% 15% 5% 50% 15%
>120 mm
115 mm
110 mm
105 mm
100 mm
95 mm
90 mm
85 mm
80 mm
75 mm
70 mm
65 mm
60 mm
55 mm
50 mm
45 mm
45 mm
40 mm
35 mm
30 mm
25 mm
20 mm
15 mm
10 mm
5 mm
0.1 mm
Onweer risico kaarten - De groene en gele kleur geeft de kans op onweer aan binnen 40 km van een punt. Oranje, rood en violet hebben hetzelfde niveau zoals je het ziet op estofex.org waaronder ook de kans op hagel en supercells.

dBZ - dBZ staat voor decibel ten opzichte van Z.

Cape - Convective available potential energy (CAPE), is de totale hoeveelheid energie die ee